Dewpoint
49 50 49 49 49 49 50 50 49 50 50 50 50 50 49 49 47 46 46 46 46 45 45 45 45 45 45 46 46 46 47 47 47 47 48 48 49 51 51 52 53 54
49 49 48 48 47 48 48 49 49 49 49 49 49 48 48 47 46 45 45 44 44 44 44 45 45 44 44 44 45 45 45 46 46 47 47 48 48 49 50 51 52 53
48 48 47 47 47 48 48 48 47 47 47 47 48 48 47 46 45 44 44 44 44 44 44 44 44 44 44 44 43 44 45 45 45 45 46 47 48 48 49 50 51 52
48 47 46 47 47 47 47 46 46 45 46 45 45 45 45 45 44 44 44 44 43 43 43 43 44 43 43 43 44 43 44 44 44 45 45 46 47 48 48 49 50 50
47 46 46 46 46 46 46 45 44 44 44 44 45 45 44 43 43 42 42 42 43 42 42 42 42 43 43 43 43 43 43 43 44 44 44 45 46 47 47 48 48 49
47 45 45 45 45 45 44 43 42 43 43 44 44 44 43 43 42 41 41 41 41 41 41 41 41 41 42 42 42 42 42 42 43 43 43 44 45 46 47 47 47 47
47 46 46 45 45 45 44 43 43 43 43 43 42 43 42 42 42 41 41 42 41 40 40 40 40 41 41 41 41 41 41 41 41 41 42 43 44 45 45 46 46 45
46 45 43 43 44 44 44 42 42 43 43 42 43 42 42 40 41 42 41 41 40 39 39 39 39 39 41 41 40 40 41 41 41 41 41 40 42 42 43 44 45 44
44 42 42 43 42 42 42 42 42 42 41 42 41 41 42 41 41 41 41 40 39 39 38 39 39 39 40 40 40 39 39 40 41 41 40 41 41 40 40 42 42 43
42 42 42 42 42 42 42 42 42 41 41 41 41 41 40 42 41 40 40 39 38 38 37 37 38 39 39 39 39 39 39 39 39 40 40 40 40 39 40 40 40 41
42 41 41 42 42 41 42 42 42 42 42 40 40 40 40 40 41 41 40 39 39 37 37 36 37 38 38 38 39 40 39 39 39 39 40 39 39 39 41 40 40 40
41 41 41 41 41 42 41 41 40 40 39 39 38 38 39 39 40 40 40 38 37 37 37 36 37 38 38 38 38 39 39 40 39 39 39 39 39 39 39 39 39 39
41 42 41 41 40 39 38 37 36 37 36 36 37 37 37 38 39 38 40 39 38 38 37 38 38 37 37 38 38 38 38 38 39 39 38 39 39 39 39 39 38 38
41 41 40 37 36 35 35 36 35 36 36 36 37 37 37 37 37 38 39 39 39 37 37 39 38 37 37 37 38 38 38 38 38 39 38 37 38 37 38 37 38 38
40 39 36 35 34 35 35 36 36 36 36 36 36 37 38 37 37 37 37 37 38 37 37 38 39 39 39 39 38 37 38 38 38 37 38 38 37 37 37 37 37 37
37 35 33 34 34 35 35 35 36 36 36 36 36 36 36 37 36 37 37 37 38 37 37 40 39 40 40 39 39 38 39 39 38 37 36 37 37 37 36 36 37 37
34 33 33 34 35 35 35 34 34 35 35 35 37 37 37 37 37 36 37 38 37 37 38 39 39 40 38 37 38 38 39 39 37 36 36 36 37 35 34 36 36 36
33 32 33 33 33 32 33 33 34 34 34 35 36 37 37 37 37 36 37 38 39 37 38 39 39 38 37 38 38 37 38 39 37 35 36 36 35 34 34 36 36 37
32 32 32 32 32 33 33 33 33 34 34 34 35 36 37 36 36 37 37 38 38 37 38 38 39 38 37 37 37 37 37 38 34 36 36 35 36 35 35 35 36 36
32 31 32 32 33 33 33 32 33 34 35 35 35 35 36 36 37 37 37 37 38 38 38 39 39 38 37 37 37 37 37 38 35 36 37 36 34 34 36 36 36 36
31 31 31 32 32 33 33 33 34 35 34 35 35 35 35 35 36 37 37 38 38 39 38 39 39 37 36 37 37 37 37 38 36 36 34 34 34 35 35 36 35 36
31 32 32 32 32 32 32 33 34 35 35 35 35 34 35 35 36 36 36 36 37 38 39 38 39 37 36 36 37 36 37 35 35 34 34 34 34 35 35 35 35 36
31 32 33 33 33 32 32 34 34 34 35 35 34 34 34 34 35 35 35 35 36 37 38 38 38 37 36 36 36 36 38 35 35 32 34 33 33 34 34 34 35 35
32 31 32 33 33 32 34 35 35 34 35 35 34 34 33 34 34 33 34 34 35 36 36 37 38 38 36 36 36 36 37 36 33 32 32 32 32 33 33 33 35 37
33 33 33 33 33 34 36 35 35 35 35 35 35 34 34 33 33 33 33 34 35 36 37 37 38 38 37 36 36 36 37 37 33 31 31 32 32 31 33 33 33 35
35 35 35 34 33 35 36 36 36 35 36 36 35 33 33 33 33 33 33 34 35 36 37 37 37 38 37 36 36 36 36 38 34 33 33 33 32 32 31 32 33 33